Flag for U.S.A. Weather past 2 weeks in Knoxville, Tennessee, U.S.A.

Now
65 °F

Passing clouds.


Feels Like: 65 °F
Forecast: 62 / 80 °F
Wind: 5 mph from West

Location: McGhee Tyson Airport

Current Time: Sep 21, 2014 at 5:06:11 AM

Latest Report: Sep 21, 2014 at 3:53 AM


Visibility: 10 mi

Pressure: 29.97 "Hg

Humidity: 87%

Dew point: 61 °F

Location of KnoxvilleLocation

Historic Weather in Knoxville — Graph

°F

Knoxville temperature yesterday

Maximum temperature yesterday: 85 °F (at 3:53 PM)
Minimum temperature yesterday: 60 °F (at 6:53 AM)
Average temperature yesterday: 72 °F

Past Weeks' High & Low Weather Summary

 TemperatureHumidityPressure
High89 °F (Sep 11, 3:53 PM)100% (Sep 7, 3:53 AM)30.21 "Hg (Sep 7, 3:53 AM)
Low57 °F (Sep 19, 6:53 AM)35% (Sep 20, 5:53 PM)29.90 "Hg (Sep 17, 3:53 PM)
Average72 °F77%30.04 "Hg
* Reported Sep 6 3:53 AM — Sep 21 3:53 AM, Knoxville, Weather by CustomWeather, © 2014

Note: Actual official high and low records may vary slightly from our data, if they occured in-between our weather recording intervals... More about our weather records

Advertising

Knoxville weather history for previous 24 hours

 ConditionsComfort  
Time TempWeatherWind HumidityBarometerVisibility
3:53 AM
Sep 21
65 °FPassing clouds.5 mph87%29.97 "Hg10 mi
2:53 AM65 °FClear.3 mph87%29.98 "Hg10 mi
1:53 AM65 °FClear.3 mph87%29.98 "Hg10 mi
12:53 AM66 °FClear.5 mph84%30.01 "Hg10 mi
11:53 PM
Sep 20
67 °FPassing clouds.3 mph81%30.02 "Hg10 mi
10:53 PM69 °FClear.3 mph73%30.03 "Hg10 mi
9:53 PM72 °FClear.No wind64%30.01 "Hg10 mi
8:53 PM75 °FClear.3 mph54%29.98 "Hg10 mi
7:53 PM78 °FPassing clouds.No wind45%29.98 "Hg10 mi
6:53 PM82 °FPassing clouds.3 mph40%29.99 "Hg10 mi
5:53 PM84 °FScattered clouds.6 mph35%30.00 "Hg10 mi
4:53 PM85 °FScattered clouds.5 mph36%30.01 "Hg10 mi
3:53 PM85 °FScattered clouds.6 mph37%30.02 "Hg10 mi
2:53 PM84 °FScattered clouds.No wind41%30.05 "Hg10 mi
1:53 PM81 °FPassing clouds.3 mph47%30.08 "Hg10 mi
8:53 AM64 °FPassing clouds.5 mph84%30.15 "Hg10 mi
7:53 AM60 °FPassing clouds.5 mph93%30.15 "Hg10 mi
6:53 AM60 °FClear.No wind96%30.12 "Hg8 mi
5:53 AM61 °FClear.No wind97%30.11 "Hg8 mi
Weather by CustomWeather, © 2014

See weather overviewHow to use our weather pages